Location: Eekwerd
(53.3234°N, 6.7984°E)
Time: 08:29:52
(UTC+00:00)

Cosmos 192 - Pass Details

Date: 15 May 2026
Orbit: 695 x 707 km, 74.0° (Epoch: 5 June)

Event Time Altitude Azimuth Distance (km) Brightness Sun altitude
Rises 23:14:16 0° 334° (NNW) 3,115 8.9 -17.6°
Reaches altitude 10° 23:16:37 10° 337° (NNW) 2,191 8.0 -17.6°
Maximum altitude 23:21:33 72° 62° (ENE) 747 4.5 -17.6°
Enters shadow 23:24:20 26° 142° (SE) 1,377 5.4 -17.6°
